Starlink 4060

operational
NORAD ID: 53267 Int'l Des: 2022-086 Owner: SPXS Country: US Constellation: starlink
LEOCIRCULAR

关于 Starlink 4060

正在加载描述...

实时位置

正在加载3D地球...

即将过境

高度历史

Altitude vs Time

uPlot chart will show altitude changes over time

两行轨道根数

1 53267U 22086AB 26061.16562507 -.00000584 00000-0 -18602-4 0 9998
2 53267 53.2166 227.8981 0001176 92.9043 267.2084 15.08841966199935
Epoch: Mar 2, 2026 • Age: 32 hours

当前状态

高度 557.7 km
速度 7.58 km/s
星下点 -49.82°S, 178.48°W
发射日期 Jul 24, 2022
运行时间 3.6 years
类型 internet

技术详情

分类 Payload
质量 297.00 kg
干质量 275.00 kg
总质量 297.00 kg
长度 0.20 m
直径 2.80 m
跨度 9.00 m
形状 Box + pan
制造商 SPXS
平台类型 Starlink
阶段状态 In Orbit
所有者/国家 SPXS/US

大型星座

Loading constellations...